Starlink 31855

operational
NORAD ID: 59838 Int'l Des: 2024-097 Owner: SPXS Country: US Constellation: starlink
LEOCIRCULAR

About Starlink 31855

Description loading...

Live Position

Loading 3D Globe...

Upcoming Passes

Altitude History

Altitude vs Time

uPlot chart will show altitude changes over time

Two-Line Element Set

1 59838U 24097D 26034.25515299 .00028907 00000-0 10554-2 0 9991
2 59838 43.0025 108.5486 0001485 262.5494 97.5189 15.27595659 96650
Epoch: Feb 3, 2026 • Age: 25 hours

Current Status

Altitude 491.3 km
Velocity 7.62 km/s
Sub-Earth Point -33.29°S, 178.8°E
Launch Date May 23, 2024
Age 1.7 years
Type internet

Technical Details

Classification Payload
Mass 730.00 kg
Dry Mass 700.00 kg
Total Mass 730.00 kg
Length 0.30 m
Diameter 4.10 m
Span 29.00 m
Shape Box + pan
Manufacturer SPXS
Bus Type Starlink V2M
Phase Status In Orbit
Owner/State SPXS/US

Large Constellations

Loading constellations...